VALLADOLID(MIL/CIV) current weather conditions

sailwx.info

Wind from 300 at 14 knots

Air temperature 2.0° C
Visibility: greater than 5.4 NM
Dewpoint -0.0° C

Last reported at 2019-Nov-15 07:00 UTC.
Time now 2019-Nov-15 07:48 UTC

Location: N 41°43' W 004°50'.
View on Google Maps.

See reports from other nearby stations

  
Tides and Currents Weather Stations Pressure Air Temp Water Temp Dewpoint Dewpoint Depression Visibility Wind Speed Wind Dir Waves Ship Positions
date/time (UTC)wind fromknots sea level pressurealtimeterstation pressurevisibilityair tempwater tempwave heightnotes
2019-Nov-15 07:00 300 14 5.4 2.0
2019-Nov-15 06:30 300 12 5.4 2.0
2019-Nov-15 06:00 300 13 5.4 2.0 Light rain.
2019-Nov-15 05:30 280 12 5.4 2.0
2019-Nov-15 05:00 280 7 5.4 2.0
2019-Nov-15 04:30 270 7 5.4 1.0
2019-Nov-15 04:00 280 11 5.4 2.0
2019-Nov-15 03:30 310 9 5.4 2.0
2019-Nov-15 03:00 310 12 5.4 2.0
2019-Nov-15 02:30 300 13 5.4 2.0
2019-Nov-15 02:00 300 11 5.4 2.0
2019-Nov-15 01:30 300 12 5.4 2.0
2019-Nov-15 01:00 310 13 5.4 2.0
2019-Nov-15 00:30 300 13 5.4 2.0
2019-Nov-15 00:00 300 13 5.4 2.0
2019-Nov-14 23:30 300 14 5.4 2.0
2019-Nov-14 23:00 310 15 5.4 2.0
2019-Nov-14 22:30 310 18 5.4 3.0
2019-Nov-14 22:00 310 17 5.4 3.0
2019-Nov-14 21:30 310 17 5.4 3.0
2019-Nov-14 21:00 310 17 5.4 2.0
2019-Nov-14 20:30 310 15 5.4 3.0
2019-Nov-14 20:00 310 13 5.4 3.0
2019-Nov-14 19:30 310 15 5.4 3.0
2019-Nov-14 19:00 310 13 5.4 3.0
2019-Nov-14 18:30 310 15 5.4 3.0
2019-Nov-14 18:00 310 19 5.4 4.0
2019-Nov-14 17:30 300 18 5.4 4.0
2019-Nov-14 17:00 300 19 5.4 4.0
2019-Nov-14 16:30 290 13 5.4 4.0
2019-Nov-14 16:00 290 21 4.3 3.0 Rain showers.
2019-Nov-14 15:30 270 20 5.4 4.0
2019-Nov-14 15:00 260 21 4.9 4.0 Rain showers.
2019-Nov-14 14:30 260 24 5.4 3.0 Light rain showers.
2019-Nov-14 14:00 260 20 2.2 2.0 Rain showers.
2019-Nov-14 13:30 260 20 5.4 5.0
2019-Nov-14 13:11 260 22 5.4 5.0 Rain.
2019-Nov-14 13:00 260 22 5.4 6.0
2019-Nov-14 12:30 260 26 5.4 5.0
2019-Nov-14 12:00 250 25 5.4 6.0
2019-Nov-14 11:30 260 22 5.4 5.0
2019-Nov-14 11:00 260 21 5.4 5.0
2019-Nov-14 10:30 260 20 5.4 5.0
2019-Nov-14 10:00 260 20 5.4 4.0
2019-Nov-14 09:30 270 20 5.4 4.0
2019-Nov-14 09:00 260 20 5.4 3.0
2019-Nov-14 08:30 260 11 5.4 3.0
2019-Nov-14 08:00 280 8 5.4 3.0
2019-Nov-14 07:30 300 13 5.4 2.0
2019-Nov-14 07:00 300 13 5.4 3.0
2019-Nov-14 06:30 300 12 5.4 4.0
2019-Nov-14 06:00 300 11 5.4 4.0
2019-Nov-14 05:30 300 13 5.4 4.0
2019-Nov-14 05:00 310 20 gusting 29 5.4 4.0
2019-Nov-14 04:30 310 17 5.4 5.0
2019-Nov-14 04:00 310 20 gusting 29 5.4 5.0 Light rain.
2019-Nov-14 03:30 280 19 gusting 28 5.4 6.0 Light rain.
2019-Nov-14 03:00 260 18 3.2 7.0 Light rain.
2019-Nov-14 02:30 240 18 4.3 6.0 Light rain.
2019-Nov-14 02:00 250 21 5.4 7.0
2019-Nov-14 01:30 240 19 5.4 7.0
2019-Nov-14 01:00 240 20 5.4 7.0
2019-Nov-14 00:30 240 18 5.4 7.0
2019-Nov-14 00:00 250 17 5.4 7.0
2019-Nov-13 23:30 250 22 5.4 7.0
2019-Nov-13 23:00 260 18 5.4 7.0
2019-Nov-13 22:30 260 17 5.4 7.0
2019-Nov-13 22:00 260 20 5.4 7.0
2019-Nov-13 21:30 270 18 5.4 7.0
2019-Nov-13 21:00 260 20 5.4 7.0
2019-Nov-13 20:30 270 17 5.4 8.0
2019-Nov-13 20:00 270 17 5.4 8.0
2019-Nov-13 19:30 270 15 5.4 9.0
2019-Nov-13 19:00 260 13 5.4 9.0
2019-Nov-13 18:30 250 13 5.4 9.0
2019-Nov-13 18:00 250 13 5.410.0
2019-Nov-13 17:30 240 9 5.410.0
2019-Nov-13 17:00 240 7 5.411.0
2019-Nov-13 16:30 240 7 5.413.0
2019-Nov-13 16:00 240 11 5.413.0
2019-Nov-13 15:30 250 11 5.413.0
2019-Nov-13 15:00 250 8 5.413.0
2019-Nov-13 14:30 240 8 5.413.0
2019-Nov-13 14:00 260 8 5.412.0
2019-Nov-13 13:30 250 6 5.412.0
2019-Nov-13 13:00 230 6 5.411.0
2019-Nov-13 12:30 220 6 5.411.0
2019-Nov-13 12:00 200 5 5.411.0
2019-Nov-13 11:30 130 4 5.411.0
2019-Nov-13 11:00 140 4 5.411.0
2019-Nov-13 10:30 090 4 5.411.0
2019-Nov-13 10:00 070 6 5.410.0
2019-Nov-13 09:30 050 8 5.4 9.0
2019-Nov-13 09:00 050 7 5.4 9.0
2019-Nov-13 08:30 060 2 4.9 8.0
2019-Nov-13 08:00 360 4 4.9 7.0
2019-Nov-13 07:30 010 6 4.9 7.0
2019-Nov-13 07:00 010 11 5.4 8.0